SCP
0 0 0 0 1 1 1 1 1 1 1 1 1 1 1 1 1 1 1 1 1 1 1 0 0 0 0 0 0 0 0 0 0 0 0 0 0 0 0 0 0 0 0
0 0 0 0 0 0 1 1 1 1 1 1 1 1 1 1 1 1 1 1 1 1 1 1 1 1 1 1 1 1 1 1 1 0 0 0 0 0 0 0 0 0 0
0 0 0 0 0 0 0 0 0 0 0 1 1 1 1 1 1 1 1 1 1 1 1 1 1 1 1 1 1 1 1 1 1 1 1 1 0 0 0 0 0 0 0
0 0 0 0 0 0 0 0 0 0 0 0 0 1 1 1 1 1 1 1 1 1 1 1 1 1 1 1 1 1 1 1 1 1 1 1 1 1 0 0 0 0 0
0 0 0 0 0 0 0 0 0 0 0 0 0 0 0 0 1 1 1 1 1 1 1 1 1 1 1 1 1 1 1 1 1 1 1 1 1 1 1 0 0 0 0
0 0 0 0 0 0 0 0 0 0 0 0 0 0 0 0 0 0 0 1 1 1 1 1 1 1 1 1 1 1 1 1 1 1 1 1 1 1 1 0 0 0 0
0 0 0 0 0 0 0 0 0 0 0 0 0 0 0 0 0 0 0 0 1 1 1 1 1 1 1 1 1 1 2 2 1 1 1 1 1 1 1 1 0 0 0
0 0 0 0 0 0 0 0 0 0 0 0 0 0 0 0 0 0 0 0 0 1 1 1 1 1 1 1 1 1 1 2 2 2 1 1 1 1 1 1 0 0 0
0 0 0 0 0 0 0 0 0 0 0 0 0 0 0 0 0 0 0 0 0 0 0 0 1 1 1 1 1 1 1 2 2 2 1 1 1 1 1 1 1 0 0
0 0 0 0 0 0 0 0 0 0 0 0 0 0 0 0 0 0 0 0 0 0 0 0 0 0 1 1 1 1 1 1 1 2 2 1 1 1 1 1 1 0 0
0 0 0 0 0 0 0 0 0 0 0 0 0 0 0 0 0 0 0 0 0 0 0 0 0 0 0 1 1 1 1 1 1 1 1 1 1 1 1 1 1 0 0
0 0 0 0 0 0 0 0 0 0 0 0 0 0 0 0 0 0 0 0 0 0 0 0 0 0 0 0 0 0 0 0 1 1 1 1 1 1 1 1 1 1 0
0 0 0 0 0 0 0 0 0 0 0 0 0 0 0 0 0 0 0 0 0 0 0 0 0 0 0 0 0 0 0 0 0 0 0 1 1 1 1 1 1 1 1
0 0 0 0 0 0 0 0 0 0 0 0 0 0 0 0 0 0 0 0 0 0 0 0 0 0 0 0 0 0 0 0 0 0 0 0 0 0 0 0 0 0 0
0 0 0 0 0 0 0 0 0 0 0 0 0 0 0 0 0 0 0 0 0 0 0 0 0 0 0 0 0 0 0 0 0 0 0 0 0 0 0 0 0 0 0
0 0 0 0 0 0 0 0 0 0 0 0 0 0 0 0 0 0 0 0 0 0 0 0 0 0 0 0 0 0 0 0 0 0 0 0 0 0 0 0 0 0 0
0 0 0 0 0 0 0 0 0 0 0 0 0 0 0 0 0 0 0 0 0 0 0 0 0 0 0 0 0 0 0 0 0 0 0 0 0 0 0 0 0 0 0
0 0 0 0 0 0 0 0 0 0 0 0 0 0 0 0 0 0 0 0 0 0 0 0 0 0 0 0 0 0 0 0 0 0 0 0 0 0 0 0 0 0 0
0 0 0 0 0 0 0 0 0 0 0 0 0 0 0 0 0 0 0 0 0 0 0 0 0 0 0 0 0 0 0 0 0 0 0 0 0 0 0 0 0 0 0
0 0 0 0 0 0 0 0 0 0 0 0 0 0 0 0 0 0 0 0 0 0 0 0 0 0 0 0 0 0 0 0 0 0 0 0 0 0 0 0 0 0 0
0 0 0 0 0 0 0 0 0 0 0 0 0 0 0 0 0 0 0 0 0 0 0 0 0 0 0 0 0 0 0 0 0 0 0 0 0 0 0 0 0 0 0
0 0 0 0 0 0 0 0 0 0 0 0 0 0 0 0 0 0 0 0 0 0 0 0 0 0 0 0 0 0 0 0 0 0 0 0 0 0 0 0 0 0 0
0 0 0 0 0 0 0 0 0 0 0 0 0 0 0 0 0 0 0 0 0 0 0 0 0 0 0 0 0 0 0 0 0 0 0 0 0 0 0 0 0 0 0
0 0 0 0 0 0 0 0 0 0 0 0 0 0 0 0 0 0 0 0 0 0 0 0 0 0 0 0 0 0 0 0 0 0 0 0 0 0 0 0 0 0 0
0 0 0 0 0 0 0 0 0 0 0 0 0 0 0 0 0 0 0 0 0 0 0 0 0 0 0 0 0 0 0 0 0 0 0 0 0 0 0 0 0 0 0
0 0 0 0 0 0 0 0 0 0 0 0 0 0 0 0 0 0 0 0 0 0 0 0 0 0 0 0 0 0 0 0 0 0 0 0 0 0 0 0 0 0 0
Wind_Speed
3 3 2 3 4 3 4 4 5 6 7 8 8 10 11 11 11 10 7 13 15 16 17 17 17 17 18 18 18 18 18 17 16 14 14 14 14 14 14 13 12 12 11
3 3 3 2 3 4 4 4 5 5 6 6 8 9 10 11 11 11 11 10 16 16 17 18 18 18 18 19 20 20 19 19 17 16 15 15 14 15 15 14 13 12 12
4 4 3 3 3 3 3 4 5 5 6 6 8 9 9 10 11 11 12 10 11 17 19 18 18 18 18 20 21 21 20 20 19 18 17 16 15 15 15 15 14 13 13
4 5 5 4 3 5 4 4 5 5 5 6 6 7 7 8 11 11 11 11 10 10 15 21 20 18 19 21 21 22 21 21 20 20 19 18 17 17 16 16 15 15 14
5 6 5 4 5 5 5 5 4 5 6 6 7 7 7 8 9 11 12 13 12 12 11 14 20 20 21 23 22 22 22 22 22 21 21 21 20 18 18 17 16 16 15
5 6 5 3 6 5 5 4 5 5 6 6 8 7 8 8 8 9 11 11 11 13 14 13 12 16 22 22 21 21 22 23 23 23 23 23 22 20 19 19 18 17 17
5 5 7 5 5 6 6 7 6 7 6 5 7 8 8 9 8 7 8 8 9 10 11 12 11 11 11 21 21 20 21 23 24 23 23 23 23 21 20 20 19 19 18
5 5 5 7 6 5 6 6 6 7 6 4 6 8 7 6 5 6 5 6 7 6 9 11 11 12 11 10 14 22 22 22 24 24 23 23 23 22 21 21 21 20 19
6 6 6 7 7 8 6 6 7 8 7 6 4 6 6 6 6 4 4 4 4 5 6 7 10 11 13 11 11 18 23 22 24 25 24 23 22 22 21 22 22 22 21
6 6 6 6 6 7 6 7 6 6 7 8 5 5 6 7 7 6 5 3 4 5 6 6 7 9 11 10 11 12 18 21 23 25 25 24 23 22 22 22 23 23 23
5 5 6 6 6 7 6 7 7 7 7 8 7 6 6 6 8 9 8 7 6 5 5 6 6 7 9 10 9 14 15 18 20 22 23 23 23 23 23 24 25 25 24
4 4 5 5 7 6 6 7 7 8 7 8 8 8 8 8 7 7 9 9 8 6 6 5 6 5 5 7 11 13 15 17 19 20 21 22 23 24 24 25 26 26 26
5 4 6 6 6 6 7 7 7 8 8 8 8 8 8 8 7 8 9 9 10 8 6 5 4 3 3 4 6 9 13 15 17 18 19 21 22 24 25 25 26 26 26
6 6 7 7 7 8 8 7 8 8 7 8 10 9 8 9 8 8 8 9 10 9 7 6 2 2 2 3 4 6 8 11 15 17 18 20 21 22 23 23 23 23 23
7 7 8 8 8 8 8 8 8 8 8 9 10 10 9 9 8 8 8 8 9 10 8 5 3 1 2 3 3 5 6 8 11 15 17 19 20 21 22 22 22 21 21
8 9 9 9 9 9 9 9 9 8 8 9 8 9 9 10 9 8 9 9 9 10 10 7 5 4 4 5 4 5 6 6 9 13 16 17 18 19 20 21 22 22 21
9 9 9 10 10 10 9 8 10 10 10 10 10 10 10 11 9 9 9 9 9 9 10 9 7 4 5 6 5 5 5 5 6 10 13 15 17 18 19 20 21 21 21
9 10 10 10 10 10 9 10 10 10 11 11 11 11 11 10 11 10 9 11 10 9 11 11 8 7 6 6 6 6 4 3 4 6 10 12 14 15 17 18 19 20 20
10 10 10 11 11 10 10 10 10 11 11 12 12 12 12 11 11 10 10 11 10 10 10 11 10 7 6 5 5 5 5 3 3 4 7 10 11 13 14 16 17 18 18
10 10 10 11 11 11 11 11 10 11 11 11 12 12 12 12 12 12 10 11 11 11 11 11 10 9 7 6 5 5 4 3 3 3 3 4 7 10 12 13 15 16 17
10 10 10 11 11 10 10 9 10 11 11 12 12 12 12 12 11 10 10 11 10 10 10 10 10 10 8 6 6 5 5 3 3 3 4 4 5 5 7 10 12 14 15
10 10 10 11 11 10 4 3 9 12 12 13 12 12 12 12 14 15 17 17 15 13 12 11 10 10 9 8 6 5 5 4 4 4 4 3 3 4 4 5 9 13 14
10 10 10 11 11 10 6 7 9 12 14 13 13 12 11 10 10 12 15 19 19 20 18 15 14 12 10 9 8 8 6 6 4 3 4 3 2 2 1 2 9 12 13
9 9 10 11 11 10 6 8 9 12 14 14 13 13 12 12 12 11 12 13 14 15 16 16 15 15 13 10 8 9 7 6 4 3 3 3 3 2 2 3 5 9 11
10 10 10 10 11 11 7 8 9 11 11 13 13 12 12 12 8 7 12 14 14 13 13 14 13 12 10 7 6 8 8 6 5 3 2 3 3 3 2 2 3 6 9
10 10 10 10 11 11 6 7 8 10 11 10 10 10 10 11 7 5 11 13 14 14 13 12 14 15 15 14 12 12 10 8 6 4 4 4 4 4 3 2 2 3 6
Wind_Direction
320 314 299 300 297 299 278 274 274 273 266 255 252 246 242 239 241 242 226 195 204 212 218 221 222 220 216 212 210 209 207 205 202 199 198 196 192 189 187 187 185 182 179
338 318 292 305 301 297 313 300 291 281 272 268 260 256 252 246 240 242 245 217 207 213 219 223 224 223 221 217 213 211 210 208 205 201 200 199 196 193 192 191 190 188 185
346 317 309 285 303 301 294 285 291 280 269 266 262 261 256 253 248 241 242 242 224 212 216 222 223 222 222 220 217 213 211 210 207 203 202 201 198 196 195 194 193 191 190
333 310 303 300 315 291 284 284 273 286 284 280 275 269 260 250 249 246 242 239 240 235 215 216 221 222 223 223 221 217 212 211 209 205 204 203 201 198 197 196 195 194 192
328 305 304 319 292 285 286 289 300 297 291 288 279 264 262 257 252 248 245 242 238 238 238 214 213 219 224 225 223 220 215 212 211 208 206 205 204 202 199 199 198 196 195
332 319 297 309 297 290 288 292 296 282 287 287 289 286 270 260 252 249 248 245 240 237 236 235 219 217 220 223 223 221 217 213 211 210 208 207 207 205 203 201 200 199 198
332 313 307 311 292 294 302 295 290 281 275 291 288 283 271 252 245 246 245 250 245 240 240 235 232 231 216 214 218 221 219 215 211 211 211 208 207 206 205 203 202 201 200
318 306 318 300 300 300 281 282 280 291 291 287 296 299 290 265 224 248 245 241 250 250 245 240 234 231 236 223 211 213 219 217 212 211 212 210 208 206 205 205 204 202 201
310 313 308 302 307 291 293 298 286 274 286 287 283 298 302 311 323 261 261 261 266 265 261 260 246 238 231 230 227 208 212 214 213 212 211 209 208 207 206 207 206 205 203
300 301 300 300 298 296 299 282 280 285 276 278 269 264 281 306 297 297 276 266 273 275 275 266 260 247 237 232 229 225 212 212 214 214 212 209 208 207 207 209 210 208 206
289 293 297 297 292 289 302 302 298 283 279 277 284 280 273 264 259 274 288 297 288 280 283 275 265 255 243 234 231 226 215 213 214 214 212 209 209 209 210 211 213 212 210
294 299 295 293 286 293 296 287 288 274 276 284 283 281 277 275 275 278 282 285 289 290 292 283 271 265 255 243 235 227 218 215 214 213 212 209 209 211 212 214 214 214 213
302 318 309 296 292 292 285 284 277 283 279 274 270 273 274 273 279 280 283 288 291 289 280 268 267 278 279 265 250 236 224 218 215 212 211 209 208 210 211 213 214 215 214
307 318 296 286 286 285 283 281 279 271 270 272 270 272 275 271 273 272 275 283 286 285 275 269 282 304 332 314 291 261 239 224 218 214 212 211 210 209 208 210 213 213 213
294 294 290 286 283 281 279 279 274 279 276 270 269 261 258 268 265 267 269 269 276 283 283 280 258 271 317 308 306 274 251 231 223 218 216 213 211 210 208 208 209 209 209
290 288 286 285 282 279 274 270 272 266 268 268 269 276 275 272 273 269 266 265 263 270 279 285 279 283 306 302 290 284 265 233 227 222 218 215 213 211 208 206 205 205 205
291 285 284 284 282 279 276 271 271 276 269 269 268 264 261 268 273 274 267 262 260 261 268 273 273 271 278 286 287 280 270 240 221 219 219 215 213 211 209 207 205 203 202
286 287 285 283 281 279 276 272 271 272 270 268 267 266 264 262 259 263 268 267 264 265 267 272 274 271 264 274 273 271 269 256 227 211 216 214 210 209 207 205 203 201 199
287 288 286 283 282 281 277 273 272 272 270 269 267 264 262 262 262 262 263 266 265 258 255 262 264 263 262 260 267 261 254 247 235 199 201 205 204 203 203 201 199 197 196
289 288 287 286 284 281 277 273 272 272 271 269 266 263 261 259 258 260 260 259 262 266 261 259 261 257 251 248 251 254 246 230 216 195 181 181 185 193 196 194 193 192 192
288 288 287 285 282 278 271 277 281 278 276 273 268 262 258 258 266 268 271 269 263 258 260 254 254 254 248 242 245 244 246 232 220 202 176 172 173 183 189 190 189 189 189
288 287 284 284 282 279 302 293 279 283 280 275 272 268 264 248 241 238 248 260 269 269 268 267 260 256 256 250 246 248 244 230 223 196 181 170 171 172 179 186 180 181 183
289 287 285 284 283 283 269 250 254 272 275 274 273 271 268 265 248 247 236 232 241 246 253 265 270 269 266 254 251 246 237 240 236 185 171 165 160 147 116 130 156 170 174
290 288 287 286 285 283 257 242 250 262 267 270 269 268 267 270 266 264 264 255 248 239 232 234 248 259 264 274 263 255 259 247 238 201 181 161 152 132 99 93 133 157 165
289 288 286 287 285 284 259 235 247 273 269 270 270 269 269 269 265 244 258 262 261 257 245 237 246 257 277 288 288 266 243 230 224 195 185 154 135 119 106 92 99 135 150
286 287 289 288 286 284 269 224 233 269 274 276 274 269 256 252 270 242 256 257 256 255 256 240 226 235 243 242 233 245 250 235 224 196 174 155 142 139 131 102 105 127 131